�������l�o���
Date,Time,MP-1(��Sv/h),MP-2(��Sv/h),MP-3(��Sv/h),MP-4(��Sv/h),MP-5(��Sv/h),MP-6(��Sv/h),MP-7(��Sv/h),MP-8(��Sv/h),����,����(m/s),���J
2018/05/10,00:00,0.807,1.292,0.835,1.544,1.039,0.464,0.818,0.787,�k��,5.9,��
2018/05/10,00:10,0.808,1.293,0.833,1.542,1.036,0.463,0.816,0.787,�k��,6.4,��
2018/05/10,00:20,0.809,1.294,0.835,1.544,1.041,0.464,0.816,0.788,�k��,7.0,��
2018/05/10,00:30,0.806,1.292,0.832,1.543,1.041,0.463,0.817,0.787,�k�k��,6.1,��
2018/05/10,00:40,0.808,1.294,0.834,1.544,1.039,0.465,0.816,0.787,�k�k��,6.0,��
2018/05/10,00:50,0.808,1.293,0.833,1.544,1.038,0.465,0.817,0.787,�k�k��,6.1,��
2018/05/10,01:00,0.810,1.296,0.833,1.544,1.041,0.464,0.818,0.786,�k�k��,5.4,��
2018/05/10,01:10,0.809,1.294,0.835,1.546,1.039,0.464,0.818,0.789,�k�k��,6.7,��
2018/05/10,01:20,0.808,1.296,0.834,1.541,1.042,0.464,0.818,0.788,�k�k��,6.0,��
2018/05/10,01:30,0.807,1.294,0.835,1.542,1.042,0.464,0.816,0.786,�k�k��,5.6,��
2018/05/10,01:40,0.809,1.294,0.833,1.545,1.039,0.464,0.818,0.789,�k��,5.2,��
2018/05/10,01:50,0.810,1.295,0.835,1.544,1.041,0.466,0.816,0.787,�k��,5.8,�L
2018/05/10,02:00,0.808,1.296,0.834,1.545,1.041,0.465,0.816,0.786,�k�k��,5.5,�L
2018/05/10,02:10,0.809,1.296,0.835,1.544,1.044,0.466,0.818,0.788,�k��,6.2,��
2018/05/10,02:20,0.810,1.294,0.833,1.546,1.042,0.465,0.816,0.787,�k��,5.7,��
2018/05/10,02:30,0.810,1.295,0.834,1.545,1.042,0.464,0.818,0.789,�k��,5.2,��
2018/05/10,02:40,0.808,1.296,0.835,1.547,1.042,0.465,0.816,0.788,�k��,5.9,��
2018/05/10,02:50,0.810,1.295,0.837,1.546,1.042,0.464,0.817,0.787,�k��,6.1,��
2018/05/10,03:00,0.807,1.297,0.835,1.544,1.042,0.466,0.818,0.788,�k��,6.3,��
2018/05/10,03:10,0.811,1.298,0.836,1.543,1.042,0.465,0.819,0.790,�k��,6.4,��
2018/05/10,03:20,0.807,1.296,0.836,1.546,1.042,0.463,0.818,0.788,�k�k��,6.1,��
2018/05/10,03:30,0.811,1.297,0.837,1.548,1.042,0.465,0.819,0.787,�k�k��,6.8,��
2018/05/10,03:40,0.809,1.299,0.838,1.548,1.041,0.465,0.818,0.789,�k�k��,4.8,��
2018/05/10,03:50,0.810,1.296,0.837,1.547,1.045,0.462,0.819,0.789,�k��,4.5,��
2018/05/10,04:00,0.811,1.296,0.838,1.546,1.041,0.465,0.818,0.788,�k��,5.2,�L
2018/05/10,04:10,0.808,1.295,0.836,1.546,1.044,0.464,0.819,0.788,�k��,5.5,�L
2018/05/10,04:20,0.810,1.297,0.834,1.548,1.044,0.464,0.819,0.788,�k��,5.1,��
2018/05/10,04:30,0.811,1.296,0.836,1.547,1.042,0.463,0.819,0.788,�k��,4.7,��
2018/05/10,04:40,0.809,1.299,0.836,1.547,1.040,0.464,0.820,0.789,�k��,5.2,�L
2018/05/10,04:50,0.811,1.296,0.836,1.548,1.043,0.465,0.819,0.789,�k��,4.9,�L
2018/05/10,05:00,0.810,1.295,0.838,1.549,1.043,0.464,0.819,0.790,�k��,4.6,�L
2018/05/10,05:10,0.812,1.299,0.837,1.548,1.043,0.466,0.819,0.787,�k��,4.5,�L
2018/05/10,05:20,0.810,1.298,0.839,1.549,1.043,0.465,0.819,0.790,�k��,4.8,�L
2018/05/10,05:30,0.810,1.297,0.837,1.547,1.043,0.465,0.818,0.790,�k��,4.5,�L
2018/05/10,05:40,0.811,1.295,0.836,1.549,1.044,0.466,0.820,0.787,�k��,4.2,��
2018/05/10,05:50,0.809,1.296,0.836,1.547,1.045,0.465,0.818,0.788,�k��,3.9,�L
2018/05/10,06:00,0.811,1.298,0.837,1.548,1.046,0.463,0.818,0.789,�k��,3.5,�L
2018/05/10,06:10,0.811,1.297,0.837,1.548,1.045,0.466,0.820,0.788,�k�k��,3.8,�L
2018/05/10,06:20,0.811,1.298,0.836,1.549,1.045,0.464,0.821,0.791,�k��,3.7,��
2018/05/10,06:30,0.811,1.297,0.836,1.549,1.044,0.467,0.818,0.790,�k�k��,3.5,��
2018/05/10,06:40,0.812,1.298,0.836,1.550,1.044,0.465,0.820,0.790,�k�k��,3.9,��
2018/05/10,06:50,0.810,1.299,0.839,1.549,1.046,0.464,0.819,0.789,�k�k��,3.9,��
2018/05/10,07:00,0.812,1.297,0.837,1.546,1.046,0.466,0.819,0.789,�k�k��,3.3,��
2018/05/10,07:10,0.810,1.299,0.838,1.548,1.047,0.465,0.818,0.790,�k�k��,4.1,��
2018/05/10,07:20,0.811,1.297,0.837,1.549,1.048,0.465,0.819,0.789,�k��,3.4,�L
2018/05/10,07:30,0.810,1.297,0.837,1.547,1.046,0.464,0.819,0.790,�k�k��,2.6,��
2018/05/10,07:40,0.810,1.299,0.836,1.548,1.046,0.466,0.818,0.790,�k�k��,3.6,�L
2018/05/10,07:50,0.810,1.299,0.838,1.550,1.048,0.465,0.818,0.788,�k�k��,3.2,��
2018/05/10,08:00,0.811,1.298,0.838,1.550,1.046,0.466,0.819,0.790,�k��,3.1,��
2018/05/10,08:10,0.810,1.299,0.838,1.550,1.047,0.465,0.819,0.791,�k�k��,3.1,�L
2018/05/10,08:20,0.812,1.299,0.837,1.550,1.047,0.466,0.820,0.790,�k,2.5,�L
2018/05/10,08:30,0.810,1.299,0.839,1.548,1.047,0.464,0.819,0.789,�k�k��,2.2,�L
2018/05/10,08:40,0.813,1.299,0.839,1.549,1.046,0.467,0.820,0.790,�k,1.5,�L
2018/05/10,08:50,0.813,1.299,0.838,1.547,1.046,0.465,0.818,0.790,�k,2.2,��
2018/05/10,09:00,0.812,1.298,0.839,1.552,1.050,0.467,0.819,0.787,�k�k��,2.6,��
2018/05/10,09:10,0.813,1.293,0.838,1.549,1.048,0.464,0.821,0.788,�k�k��,3.3,��
2018/05/10,09:20,0.813,1.294,0.839,1.551,1.050,0.464,0.820,0.788,�k�k��,3.2,��
2018/05/10,09:30,0.812,1.295,0.838,1.551,1.049,0.464,0.818,0.788,�k�k��,2.3,��
2018/05/10,09:40,0.811,1.298,0.839,1.552,1.048,0.463,0.819,0.789,�k��,2.3,��
2018/05/10,09:50,0.811,1.296,0.840,1.553,1.048,0.464,0.818,0.787,�k��,2.6,��
2018/05/10,10:00,0.811,1.294,0.839,1.553,1.049,0.464,0.819,0.786,�k��,2.6,��
2018/05/10,10:10,0.811,1.294,0.837,1.553,1.047,0.464,0.820,0.787,�k�k��,3.1,��
2018/05/10,10:20,0.814,1.293,0.836,1.552,1.048,0.463,0.821,0.787,���k��,2.6,��
2018/05/10,10:30,0.813,1.292,0.838,1.555,1.050,0.464,0.820,0.788,���k��,2.0,��
2018/05/10,10:40,0.813,1.291,0.839,1.553,1.050,0.464,0.819,0.788,�k�k��,2.6,��
2018/05/10,10:50,0.814,1.293,0.841,1.555,1.051,0.466,0.820,0.788,�k��,2.6,��
2018/05/10,11:00,0.815,1.296,0.842,1.552,1.053,0.466,0.821,0.788,�k��,1.9,��
2018/05/10,11:10,0.815,1.296,0.839,1.555,1.051,0.465,0.819,0.789,���k��,2.0,�L
2018/05/10,11:20,0.813,1.300,0.841,1.555,1.050,0.465,0.820,0.787,���k��,1.4,�L
2018/05/10,11:30,0.812,1.300,0.840,1.555,1.053,0.466,0.820,0.789,��,1.1,�L
2018/05/10,11:40,0.815,1.296,0.840,1.556,1.051,0.466,0.821,0.788,���쓌,2.3,��
2018/05/10,11:50,0.815,1.297,0.842,1.555,1.053,0.466,0.822,0.788,���쓌,2.8,�L
2018/05/10,12:00,0.817,1.298,0.839,1.558,1.051,0.465,0.823,0.788,�쓌,2.6,�L
2018/05/10,12:10,0.813,1.294,0.838,1.555,1.052,0.465,0.822,0.789,�쓌,2.0,�L
2018/05/10,12:20,0.806,1.279,0.831,1.547,1.043,0.465,0.820,0.788,�k��,1.4,�L
2018/05/10,12:30,0.795,1.264,0.821,1.520,1.024,0.460,0.813,0.780,�k,3.7,�L
2018/05/10,12:40,0.800,1.265,0.827,1.522,1.029,0.461,0.813,0.783,�k,2.2,��
2018/05/10,12:50,0.801,1.266,0.828,1.529,1.029,0.461,0.814,0.782,�k�k��,2.0,��
2018/05/10,13:00,0.803,1.268,0.829,1.529,1.030,0.463,0.815,0.784,�k,1.7,�L
2018/05/10,13:10,0.805,1.271,0.831,1.528,1.032,0.464,0.814,0.783,�k,1.4,�L
2018/05/10,13:20,0.806,1.270,0.831,1.528,1.034,0.463,0.814,0.784,�k��,0.6,�L
2018/05/10,13:30,0.805,1.273,0.831,1.532,1.036,0.465,0.816,0.782,�k��,1.2,��
2018/05/10,13:40,0.805,1.274,0.835,1.532,1.036,0.464,0.816,0.783,��,0.9,��
2018/05/10,13:50,0.805,1.272,0.832,1.533,1.040,0.462,0.814,0.784,���쓌,0.9,��
2018/05/10,14:00,0.807,1.274,0.833,1.533,1.041,0.463,0.817,0.787,�쓌,2.0,��
2018/05/10,14:10,0.807,1.276,0.832,1.534,1.038,0.462,0.817,0.785,���쓌,2.0,��
2018/05/10,14:20,0.806,1.276,0.832,1.537,1.039,0.463,0.816,0.786,��,1.1,��
2018/05/10,14:30,0.807,1.277,0.831,1.536,1.040,0.462,0.817,0.786,��,1.2,��
2018/05/10,14:40,0.808,1.278,0.832,1.534,1.040,0.462,0.818,0.785,�쓌,1.9,��
2018/05/10,14:50,0.805,1.280,0.831,1.538,1.041,0.463,0.819,0.786,���쓌,1.7,��
2018/05/10,15:00,0.807,1.277,0.832,1.540,1.042,0.464,0.817,0.789,���쓌,1.5,��
2018/05/10,15:10,0.804,1.282,0.832,1.538,1.043,0.463,0.818,0.784,��쓌,2.6,��
2018/05/10,15:20,0.807,1.278,0.832,1.536,1.041,0.463,0.820,0.785,���쓌,1.4,�L
2018/05/10,15:30,0.805,1.279,0.832,1.536,1.041,0.464,0.819,0.785,���k��,0.8,�L
2018/05/10,15:40,0.808,1.280,0.834,1.540,1.042,0.464,0.819,0.784,�쓌,0.6,��
2018/05/10,15:50,0.807,1.280,0.836,1.539,1.044,0.465,0.819,0.785,�k��,2.3,��
2018/05/10,16:00,0.809,1.284,0.837,1.542,1.043,0.466,0.819,0.786,���k��,5.1,��
2018/05/10,16:10,0.809,1.284,0.834,1.540,1.044,0.466,0.820,0.789,���k��,7.1,��
2018/05/10,16:20,0.812,1.286,0.838,1.543,1.047,0.465,0.820,0.788,�k��,7.5,��
2018/05/10,16:30,0.812,1.288,0.837,1.543,1.046,0.466,0.821,0.786,���k��,5.9,��
2018/05/10,16:40,0.811,1.286,0.836,1.545,1.046,0.466,0.819,0.787,���k��,5.1,��
2018/05/10,16:50,0.810,1.287,0.839,1.545,1.044,0.465,0.820,0.787,���k��,5.7,��
2018/05/10,17:00,0.811,1.286,0.835,1.545,1.047,0.466,0.821,0.787,���k��,5.2,��
2018/05/10,17:10,0.807,1.286,0.836,1.543,1.046,0.466,0.819,0.789,���k��,4.0,��
2018/05/10,17:20,0.809,1.288,0.837,1.543,1.045,0.467,0.820,0.789,���k��,3.5,��
2018/05/10,17:30,0.809,1.286,0.838,1.542,1.048,0.468,0.821,0.789,���k��,4.6,��
2018/05/10,17:40,0.807,1.289,0.833,1.547,1.044,0.467,0.821,0.790,���k��,4.0,��
2018/05/10,17:50,0.809,1.288,0.837,1.547,1.047,0.468,0.820,0.790,���k��,5.7,��
2018/05/10,18:00,0.810,1.290,0.835,1.546,1.047,0.466,0.820,0.790,���k��,5.7,��
2018/05/10,18:10,0.811,1.287,0.836,1.549,1.046,0.466,0.819,0.791,��,5.1,��
2018/05/10,18:20,0.812,1.290,0.835,1.547,1.050,0.467,0.821,0.790,��,6.2,��
2018/05/10,18:30,0.811,1.286,0.836,1.548,1.050,0.465,0.821,0.789,���k��,6.1,��
2018/05/10,18:40,0.808,1.287,0.838,1.549,1.048,0.466,0.819,0.790,���k��,4.1,��
2018/05/10,18:50,0.810,1.287,0.838,1.550,1.049,0.467,0.820,0.789,��,2.6,��
2018/05/10,19:00,0.811,1.289,0.836,1.545,1.050,0.466,0.820,0.789,���k��,3.2,��
2018/05/10,19:10,0.809,1.289,0.839,1.551,1.049,0.466,0.820,0.789,���k��,3.7,��
2018/05/10,19:20,0.809,1.289,0.838,1.551,1.051,0.467,0.823,0.789,���k��,2.3,��
2018/05/10,19:30,0.810,1.289,0.837,1.549,1.052,0.466,0.823,0.788,���k��,3.7,��
2018/05/10,19:40,0.811,1.289,0.840,1.549,1.048,0.466,0.821,0.788,���k��,3.3,��
2018/05/10,19:50,0.811,1.290,0.840,1.553,1.051,0.466,0.824,0.790,���k��,2.3,��
2018/05/10,20:00,0.811,1.291,0.839,1.550,1.052,0.465,0.822,0.789,�k�k��,1.9,��
2018/05/10,20:10,0.809,1.288,0.838,1.552,1.051,0.466,0.822,0.788,�k��,2.3,��
2018/05/10,20:20,0.808,1.286,0.841,1.549,1.051,0.466,0.821,0.789,���k��,2.6,��
2018/05/10,20:30,0.808,1.289,0.840,1.549,1.050,0.465,0.820,0.789,���k��,3.4,��
2018/05/10,20:40,0.808,1.288,0.839,1.553,1.051,0.465,0.821,0.789,���k��,3.6,��
2018/05/10,20:50,0.809,1.290,0.839,1.551,1.051,0.466,0.822,0.787,���k��,3.8,��
2018/05/10,21:00,0.809,1.289,0.840,1.549,1.051,0.466,0.821,0.790,���k��,4.9,��
2018/05/10,21:10,0.809,1.291,0.839,1.548,1.050,0.465,0.818,0.791,�k��,4.2,��
2018/05/10,21:20,0.811,1.291,0.838,1.550,1.052,0.466,0.821,0.791,��,2.9,��
2018/05/10,21:30,0.811,1.290,0.839,1.550,1.052,0.466,0.821,0.790,���k��,3.1,��
2018/05/10,21:40,0.809,1.290,0.838,1.548,1.052,0.464,0.821,0.789,���k��,3.0,��
2018/05/10,21:50,0.809,1.288,0.837,1.548,1.051,0.467,0.821,0.789,��,2.6,��
2018/05/10,22:00,0.809,1.288,0.837,1.551,1.050,0.466,0.821,0.789,�쐼,2.6,��
2018/05/10,22:10,0.810,1.289,0.840,1.548,1.053,0.465,0.822,0.789,���쐼,3.8,��
2018/05/10,22:20,0.809,1.289,0.838,1.548,1.049,0.464,0.820,0.788,���쐼,4.1,��
2018/05/10,22:30,0.809,1.290,0.838,1.551,1.052,0.465,0.819,0.789,���쐼,5.0,��
2018/05/10,22:40,0.809,1.290,0.839,1.552,1.052,0.466,0.821,0.789,���쐼,5.0,��
2018/05/10,22:50,0.808,1.288,0.837,1.550,1.051,0.465,0.821,0.788,��,4.6,��
2018/05/10,23:00,0.810,1.290,0.839,1.551,1.051,0.465,0.822,0.790,��,4.6,��
2018/05/10,23:10,0.810,1.287,0.840,1.549,1.050,0.465,0.822,0.790,��,4.7,��
2018/05/10,23:20,0.807,1.290,0.838,1.547,1.051,0.465,0.822,0.790,��,3.8,��
2018/05/10,23:30,0.808,1.290,0.838,1.550,1.053,0.466,0.822,0.790,��,4.1,��
2018/05/10,23:40,0.808,1.290,0.840,1.550,1.053,0.466,0.821,0.788,��,4.2,��
2018/05/10,23:50,0.809,1.290,0.840,1.550,1.051,0.465,0.821,0.790,���k��,5.0,��
